Simultaneous Nadir Overpasses (SNOs) Predictions

Prediction of SNOs between AQUA and GOES-15 Satellite Orbit:

Table of predicted SNOs for the next 14.0 days since TLE Epoch: 11/8/2013
Index Date Time (AQUA) AQUA Lat,Lon GOES-15 Lat,Lon Distance(km) Time Diff (sec)
1 11/10/2013 10:38:39 0.15,-135.75 0.05,-135.28 54.52 80
2 11/12/2013 10:26:31 -0.47,-132.81 0.05,-135.32 285.44 80
3 11/12/2013 22:47:57 -0.58,-138.02 -0.02,-135.28 310.24 80
4 11/14/2013 22:35:48 0.02,-135.06 -0.03,-135.33 29.61 80
5 11/16/2013 22:23:39 0.65,-132.12 -0.04,-135.36 369.20 80
6 11/17/2013 10:44:56 0.38,-137.29 0.01,-135.42 211.46 80
7 11/19/2013 10:32:46 -0.22,-134.33 0.01,-135.46 127.62 80
8 11/19/2013 22:54:11 -0.86,-139.53 0.01,-135.41 468.00 80
9 11/21/2013 10:20:36 -0.86,-131.38 0.02,-135.48 466.41 80
10 11/21/2013 22:42:01 -0.21,-136.58 0.01,-135.44 129.34 80




NCC Satellite Simultaneous Nadir Overpasses (SNOs) Prediction Service
